Geneva, Switzerland

7:36 PM CET on March 25, 2017 (GMT +0100)
Cointrin

Weather History for LSGG - March, 2014

Change the Weather History Date:

Monday, March 24, 2014

  Actual Average Record
Temperature  
Mean Temperature 40 °F -  
Max Temperature 46 °F 55 °F 68 °F (2001)
Min Temperature 33 °F 37 °F 23 °F (2008)
Degree Days  
Heating Degree Days 24    
Moisture  
Dew Point 33 °F    
Average Humidity 78    
Maximum Humidity 100    
Minimum Humidity 39    
Precipitation  
Precipitation 0.04 in 0.08 in - ()
Sea Level Pressure  
Sea Level Pressure 29.93 in    
Wind  
Wind Speed 3 mph ()    
Max Wind Speed 12 mph    
Max Gust Speed -    
Visibility 6.4 miles    
Events Rain    
Averages and records for this station are not official NWS values.
T = Trace of Precipitation, MM = Missing Value Source: Averaged Metar Reports

Daily Weather History Graph

Daily Weather History Graph

Search for Another Location

Airport or City:

Trip Planner

Search our weather history database for the weather conditions in past years. The results will help you decide how hot, cold, wet, or windy it might be!

Date:

Astronomy

Mar. 24, 2014 Rise Set
Actual Time 6:31 AM CET 6:53 PM CET
Civil Twilight 6:01 AM CET 7:23 PM CET
Nautical Twilight 5:25 AM CET 7:58 PM CET
Astronomical Twilight 4:49 AM CET 8:35 PM CET
Moon 2:05 AM CET (3/24) 11:43 AM CET (3/24)
Length of Visible Light 13h 22m
Length of Day
12h 21m
Last Quarter, 46% of the Moon is Illuminated
Mar 24
Last Quarter
Mar 30
New
Apr 7
First Quarter
Apr 15
Full
Apr 22
Last Quarter

Hourly Weather History & Observations

Time (CET) Temp. Windchill Dew Point Humidity Pressure Visibility Wind Dir Wind Speed Gust Speed Precip Events Conditions
12:00 AM 39 °F - 33 °F 73% 29.93 in - WNW 5.8 mph - -  
12:20 AM 37.4 °F - 33.8 °F 87% 29.89 in 6.2 mi West 1.2 mph - N/A Rain Light Rain Showers
12:50 AM 37.4 °F - 33.8 °F 87% 29.89 in 6.2 mi East 1.2 mph - N/A Rain Light Rain Showers
1:00 AM 39 °F - 33 °F 70% 29.93 in 25 mi North 3.5 mph - - Rain Light Rain Showers
1:20 AM 37.4 °F 34.9 °F 35.6 °F 93% 29.89 in 6.2 mi East 3.5 mph - N/A Rain Light Rain Showers
1:50 AM 37.4 °F - 35.6 °F 93% 29.89 in 6.2 mi North 1.2 mph - N/A   Mostly Cloudy
2:00 AM 38 °F - 34 °F 80% 29.94 in - North 4.6 mph - -  
2:50 AM 35.6 °F - 33.8 °F 93% 29.89 in 6.2 mi WNW 2.3 mph - N/A Rain Light Rain Showers
3:00 AM 36 °F - 34 °F 87% 29.95 in - NNE 2.3 mph - -  
3:20 AM 33.8 °F - 33.8 °F 100% 29.89 in 6.2 mi Calm Calm - N/A Rain Light Rain Showers
3:50 AM 35.6 °F - 33.8 °F 93% 29.89 in 6.2 mi Calm Calm - N/A Rain Light Rain Showers
4:00 AM 36 °F - 34 °F 88% 29.95 in 7 mi WSW 2.3 mph - - Rain Light Rain Showers
4:20 AM 35.6 °F - 33.8 °F 93% 29.89 in 6.2 mi West 1.2 mph - N/A Rain Light Rain Showers
4:50 AM 35.6 °F - 35.6 °F 100% 29.89 in 6.2 mi NNE 1.2 mph - N/A   Mostly Cloudy
5:00 AM 37 °F - 35 °F 88% 29.96 in - WNW 4.6 mph - -  
5:20 AM 35.6 °F - 35.6 °F 100% 29.89 in 5.6 mi SSW 1.2 mph - N/A Rain Rain Showers
5:50 AM 35.6 °F - 35.6 °F 100% 29.92 in 6.2 mi WSW 1.2 mph - N/A Rain Light Rain Showers
6:00 AM 37 °F - 34 °F 86% 29.97 in - SW 3.5 mph - -  
6:20 AM 35.6 °F 31.7 °F 35.6 °F 100% 29.92 in 6.2 mi SW 4.6 mph - N/A   Scattered Clouds
6:50 AM 37.4 °F 33.8 °F 35.6 °F 93% 29.92 in 6.2 mi WSW 4.6 mph - N/A   Mostly Cloudy
7:00 AM 37 °F - 34 °F 86% 29.98 in 12 mi SW 6.9 mph - -   Mostly Cloudy
7:20 AM 35.6 °F 29.9 °F 35.6 °F 100% 29.92 in 6.2 mi SSW 6.9 mph - N/A   Mostly Cloudy
7:50 AM 37.4 °F 32.1 °F 35.6 °F 93% 29.95 in 6.2 mi SSW 6.9 mph - N/A   Mostly Cloudy
8:00 AM 38 °F - 34 °F 81% 29.99 in - WNW 2.3 mph - -  
8:20 AM 37.4 °F - 35.6 °F 93% 29.95 in 6.2 mi Variable 1.2 mph - N/A   Mostly Cloudy
8:50 AM 37.4 °F 32.8 °F 35.6 °F 93% 29.95 in 6.2 mi WSW 5.8 mph - N/A   Scattered Clouds
9:00 AM 40 °F - 35 °F 75% 30.00 in - SSW 9.2 mph - -  
9:20 AM 41.0 °F 35.8 °F 37.4 °F 87% 29.95 in 6.2 mi SSW 8.1 mph - N/A   Mostly Cloudy
9:50 AM 39.2 °F 35.9 °F 35.6 °F 87% 29.95 in 6.2 mi SW 4.6 mph - N/A   Mostly Cloudy
10:00 AM 40 °F - 34 °F 72% 30.01 in 12 mi WSW 3.5 mph - -   Mostly Cloudy
10:20 AM 39.2 °F - 33.8 °F 81% 29.98 in 6.2 mi Variable 1.2 mph - N/A   Mostly Cloudy
10:50 AM 41.0 °F - 33.8 °F 76% 29.95 in 6.2 mi Calm Calm - N/A   Mostly Cloudy
11:00 AM 41 °F - 32 °F 61% 30.01 in - WSW 2.3 mph - -  
11:20 AM 42.8 °F - 33.8 °F 70% 29.95 in 6.2 mi Variable 2.3 mph - N/A   Scattered Clouds
11:50 AM 44.6 °F 43.1 °F 33.8 °F 66% 29.95 in 6.2 mi Variable 3.5 mph - N/A   Scattered Clouds
12:00 PM 43 °F - 33 °F 57% 29.99 in - ESE 6.9 mph - -  
12:20 PM 42.8 °F 40.1 °F 32.0 °F 66% 29.95 in 6.2 mi Variable 4.6 mph - N/A   Scattered Clouds
12:50 PM 46.4 °F 43.5 °F 32.0 °F 57% 29.95 in 6.2 mi ESE 5.8 mph - N/A   Scattered Clouds
1:00 PM 46 °F - 30 °F 40% 29.96 in 31 mi ENE 5.8 mph - -   Partly Cloudy
1:20 PM 48.2 °F - 30.2 °F 50% 29.92 in 6.2 mi Variable 3.5 mph - N/A   Scattered Clouds
1:50 PM 44.6 °F 40.7 °F 32.0 °F 61% 29.92 in 6.2 mi East 6.9 mph - N/A   Scattered Clouds
2:00 PM 45 °F - 30 °F 44% 29.94 in - NE 5.8 mph - -  
2:20 PM 44.6 °F 40.7 °F 30.2 °F 57% 29.92 in 6.2 mi ENE 6.9 mph - N/A   Scattered Clouds
2:50 PM 44.6 °F 40.2 °F 30.2 °F 57% 29.89 in 6.2 mi ENE 8.1 mph - N/A   Scattered Clouds
3:00 PM 44 °F - 30 °F 45% 29.94 in - ENE 8.1 mph - -  
3:20 PM 46.4 °F 42.9 °F 32.0 °F 57% 29.89 in 6.2 mi East 6.9 mph - N/A   Scattered Clouds
3:50 PM 46.4 °F 43.5 °F 28.4 °F 50% 29.89 in 6.2 mi ESE 5.8 mph - N/A   Scattered Clouds
4:00 PM 45 °F - 28 °F 39% 29.92 in 31 mi South 6.9 mph - -   Partly Cloudy
4:20 PM 44.6 °F 38.8 °F 32.0 °F 61% 29.89 in 6.2 mi SW 11.5 mph - N/A   Mostly Cloudy
4:50 PM 41.0 °F 35.8 °F 32.0 °F 70% 29.89 in 6.2 mi WSW 8.1 mph - N/A   Mostly Cloudy
5:00 PM 40 °F - 32 °F 65% 29.94 in - WSW 9.2 mph - -  
5:20 PM 41.0 °F 34.3 °F 33.8 °F 76% 29.89 in 6.2 mi SW 11.5 mph - N/A   Scattered Clouds
5:50 PM 41.0 °F 38.0 °F 32.0 °F 70% 29.89 in 6.2 mi WSW 4.6 mph - N/A   Scattered Clouds
6:00 PM 41 °F - 31 °F 57% 29.94 in - NNW 3.5 mph - -  
6:20 PM 41.0 °F - 32.0 °F 70% 29.89 in 6.2 mi Variable 1.2 mph - N/A   Scattered Clouds
6:50 PM 39.2 °F 37.0 °F 33.8 °F 81% 29.89 in 6.2 mi West 3.5 mph - N/A   Partly Cloudy
7:00 PM 39 °F - 33 °F 71% 29.94 in 28 mi WNW 3.5 mph - -   Scattered Clouds
7:20 PM 39.2 °F - 33.8 °F 81% 29.89 in 6.2 mi Calm Calm - N/A   Scattered Clouds
7:50 PM 37.4 °F 34.9 °F 33.8 °F 87% 29.92 in 6.2 mi WSW 3.5 mph - N/A   Mostly Cloudy
8:00 PM 38 °F - 33 °F 76% 29.96 in - WSW 3.5 mph - -  
8:20 PM 37.4 °F - 33.8 °F 87% 29.92 in 6.2 mi Variable 1.2 mph - N/A   Scattered Clouds
8:50 PM 37.4 °F - 33.8 °F 87% 29.92 in 6.2 mi SW 2.3 mph - N/A   Scattered Clouds
9:00 PM 38 °F - 33 °F 76% 29.97 in - WSW 2.3 mph - -  
9:20 PM 37.4 °F - 33.8 °F 87% 29.92 in 6.2 mi Variable 1.2 mph - N/A   Scattered Clouds
9:50 PM 37.4 °F - 33.8 °F 87% 29.92 in 6.2 mi Calm Calm - N/A   Scattered Clouds
10:00 PM 38 °F - 34 °F 80% 29.96 in 31 mi North 3.5 mph - -   Partly Cloudy
10:20 PM 37.4 °F - 33.8 °F 87% 29.92 in 6.2 mi Variable 1.2 mph - N/A   Partly Cloudy
10:50 PM 35.6 °F - 33.8 °F 93% 29.89 in 6.2 mi Variable 1.2 mph - N/A   Partly Cloudy
11:00 PM 36 °F - 33 °F 84% 29.96 in - ENE 2.3 mph - -  
11:20 PM 35.6 °F - 33.8 °F 93% 29.89 in 6.2 mi Calm Calm - N/A   Partly Cloudy
11:50 PM 33.8 °F - 32.0 °F 93% 29.89 in 6.2 mi Variable 2.3 mph - N/A   Partly Cloudy